Location: Courçay
(47.2523°N, 0.8761°E)
Time: 06:55:49
(UTC+00:00)

SPOT 1/Viking Rocket - Pass Details

Date: 18 November 2025
Orbit: 773 x 788 km, 98.2° (Epoch: 06 December)

Event Time Altitude Azimuth Distance (km) Brightness Sun altitude
Rises 18:18:12 0° 171° (S) 3,254 6.7 -20.2°
Reaches altitude 10° 18:20:31 10° 173° (S) 2,333 6.0 -20.6°
Maximum altitude 18:25:39 70° 257° (WSW) 836 3.8 -21.5°
Drops below altitude 10° 18:30:51 10° 342° (NNW) 2,359 6.2 -22.3°
Sets 18:33:12 0° 345° (NNW) 3,294 6.9 -22.7°
